Weather History for Opa Locka, FL

Change the Weather History Date:

Thursday, July 11, 2013

  Actual Average Record
Temperature  
Mean Temperature 82 °F -  
Max Temperature 91 °F 90 °F 98 °F (1979)
Min Temperature 75 °F 75 °F 69 °F (1956)
Cooling Degree Days 18    
Growing Degree Days 32 (Base 50)    
Moisture  
Dew Point 72 °F    
Average Humidity 73    
Maximum Humidity 100    
Minimum Humidity 55    
Precipitation  
Precipitation 0.01 in - - ()
Sea Level Pressure  
Sea Level Pressure 30.01 in    
Wind  
Wind Speed 4 mph (SE)    
Max Wind Speed 18 mph    
Max Gust Speed 24 mph    
Visibility 10 miles    
Events      
Averages and records for this station are not official NWS values.
T = Trace of Precipitation, MM = Missing Value Source: NWS Daily Summary

Daily Weather History Graph

Daily Weather History Graph

Search for Another Location

Airport:

Trip Planner

Search our weather history database for the weather conditions in past years. The results will help you decide how hot, cold, wet, or windy it might be!

Date:

Astronomy

Jul. 11, 2013 Rise Set
Actual Time 6:37 AM EDT 8:16 PM EDT
Civil Twilight 6:11 AM EDT 8:41 PM EDT
Nautical Twilight 5:40 AM EDT 9:12 PM EDT
Astronomical Twilight 5:08 AM EDT 9:44 PM EDT
Moon 9:31 AM EDT (7/11) 10:21 PM EDT (7/11)
Length of Visible Light 14h 30m
Length of Day
13h 38m
Waxing Crescent, 10% of the Moon is Illuminated
Jul 11
Waxing Crescent
Jul 15
First Quarter
Jul 22
Full
Jul 29
Last Quarter
Aug 6
New

Hourly Weather History & Observations

Time (EDT) Temp. Heat Index Dew Point Humidity Pressure Visibility Wind Dir Wind Speed Gust Speed Precip Events Conditions
12:53 AM 78.1 °F - 73.9 °F 87% 30.05 in 10.0 mi Calm Calm - N/A   Clear
1:53 AM 77.0 °F - 73.9 °F 90% 30.04 in 10.0 mi Calm Calm - N/A   Clear
2:53 AM 77.0 °F - 73.9 °F 90% 30.03 in 10.0 mi SSE 5.8 mph - N/A   Partly Cloudy
3:53 AM 77.0 °F - 75.9 °F 96% 30.02 in 10.0 mi Calm Calm - 0.01 in   Partly Cloudy
4:53 AM 77.0 °F - 75.0 °F 94% 30.01 in 10.0 mi Calm Calm - N/A   Partly Cloudy
5:53 AM 75.0 °F - 75.0 °F 100% 30.01 in 10.0 mi Calm Calm - N/A   Clear
7:53 AM 80.1 °F 86.4 °F 78.1 °F 94% 30.03 in 10.0 mi Calm Calm - N/A   Clear
8:53 AM 84.0 °F 92.6 °F 75.9 °F 76% 30.02 in 10.0 mi SE 6.9 mph - N/A   Clear
9:15 AM 84.2 °F 92.3 °F 75.2 °F 74% 30.02 in 10.0 mi ESE 4.6 mph - N/A   Mostly Cloudy
9:35 AM 84.2 °F 92.3 °F 75.2 °F 74% 30.01 in 10.0 mi SE 8.1 mph - N/A   Scattered Clouds
9:53 AM 84.9 °F 93.3 °F 75.0 °F 72% 30.02 in 10.0 mi SE 8.1 mph - N/A   Clear
10:53 AM 88.0 °F 96.5 °F 73.9 °F 63% 30.02 in 10.0 mi SE 10.4 mph - N/A   Scattered Clouds
11:53 AM 90.0 °F 97.9 °F 73.0 °F 57% 30.02 in 10.0 mi Variable 6.9 mph 16.1 mph N/A   Mostly Cloudy
12:53 PM 89.1 °F 95.0 °F 71.1 °F 55% 30.01 in 10.0 mi Variable 3.5 mph - N/A   Scattered Clouds
1:53 PM 88.0 °F 95.6 °F 73.0 °F 61% 30.00 in 10.0 mi SE 8.1 mph - N/A   Mostly Cloudy
2:53 PM 90.0 °F 97.9 °F 73.0 °F 57% 29.99 in 10.0 mi SE 12.7 mph - N/A   Mostly Cloudy
3:53 PM 90.0 °F 96.9 °F 72.0 °F 55% 29.96 in 10.0 mi SE 17.3 mph 23.0 mph N/A   Clear
4:53 PM 80.1 °F 82.9 °F 69.1 °F 69% 29.99 in 10.0 mi NW 18.4 mph 24.2 mph N/A   Scattered Clouds
5:04 PM 80.6 °F 83.2 °F 68.0 °F 65% 29.99 in 10.0 mi WNW 11.5 mph - N/A   Mostly Cloudy
5:53 PM 82.0 °F 84.9 °F 68.0 °F 62% 29.99 in 10.0 mi Calm Calm - N/A   Clear
6:53 PM 82.0 °F 84.9 °F 68.0 °F 62% 29.99 in 10.0 mi North 5.8 mph - N/A   Clear
7:53 PM 82.0 °F 84.9 °F 68.0 °F 62% 29.98 in 10.0 mi NNE 3.5 mph - N/A   Clear
8:53 PM 81.0 °F 83.8 °F 68.0 °F 65% 29.97 in 10.0 mi Calm Calm - N/A   Clear
9:53 PM 80.1 °F 82.9 °F 69.1 °F 69% 29.99 in 10.0 mi Calm Calm - N/A   Clear
10:53 PM 79.0 °F - 70.0 °F 74% 29.99 in 10.0 mi Calm Calm - N/A   Clear
11:53 PM 79.0 °F - 71.1 °F 77% 29.99 in 10.0 mi NW 3.5 mph - N/A   Clear